• In Deutschland
  • Länderverzeichnis
  • Für 7 Tage
  • Wassertemperatur
  • Satellitenkarten
  • Wetterkarte
  • Widgets
  • user-avatar
    Anmelden

    Stündliche Wetter Topka

    Heute, 26 September, Mittwoch

    Zeit Temperatur Niederschläge Wind Luftdruck Luftfeuchtigkeit
    00:00 +10°C° 0 mm 1 m/S 692 mmHg 66%
    01:00 +10°C° 0 mm 1 m/S 692 mmHg 65%
    02:00 +9°C° 0 mm 1 m/S 692 mmHg 67%
    03:00 +9°C° 0 mm 1 m/S 692 mmHg 69%
    04:00 +9°C° 0 mm 1 m/S 691 mmHg 70%
    05:00 +9°C° 0 mm 1 m/S 692 mmHg 71%
    06:00 +10°C° 0 mm 1 m/S 692 mmHg 71%
    07:00 +11°C° 0 mm 1 m/S 692 mmHg 69%
    08:00 +12°C° 0 mm 1 m/S 692 mmHg 64%
    09:00 +14°C° 0 mm 1 m/S 692 mmHg 59%
    10:00 +16°C° 0 mm 1 m/S 692 mmHg 54%
    11:00 +18°C° 0 mm 1 m/S 691 mmHg 52%
    12:00 +18°C° 0 mm 2 m/S 691 mmHg 50%
    13:00 +19°C° 0 mm 2 m/S 691 mmHg 49%
    14:00 +17°C° 0 mm 3 m/S 691 mmHg 54%
    15:00 +15°C° 0 mm 4 m/S 690 mmHg 58%
    16:00 +14°C° 0 mm 5 m/S 690 mmHg 63%
    17:00 +12°C° 0.1 mm 5 m/S 690 mmHg 69%
    18:00 +9°C° 0.1 mm 5 m/S 690 mmHg 75%
    19:00 +7°C° 0.1 mm 4 m/S 690 mmHg 81%
    20:00 +7°C° 1 mm 4 m/S 690 mmHg 83%
    21:00 +6°C° 1 mm 4 m/S 690 mmHg 85%
    22:00 +5°C° 1 mm 4 m/S 690 mmHg 87%
    23:00 +5°C° 0.8 mm 3 m/S 690 mmHg 88%

    Morgen, 27 September, Donnerstag

    Zeit Temperatur Niederschläge Wind Luftdruck Luftfeuchtigkeit
    00:00 +5°C° 0.8 mm 3 m/S 691 mmHg 88%
    01:00 +6°C° 0.8 mm 2 m/S 691 mmHg 88%
    02:00 +6°C° 0.4 mm 2 m/S 691 mmHg 88%
    03:00 +5°C° 0.4 mm 3 m/S 691 mmHg 88%
    04:00 +4°C° 0.4 mm 3 m/S 692 mmHg 88%
    05:00 +4°C° 0.1 mm 3 m/S 692 mmHg 87%
    06:00 +4°C° 0.1 mm 3 m/S 692 mmHg 86%
    07:00 +4°C° 0.1 mm 4 m/S 693 mmHg 84%
    08:00 +4°C° 0 mm 4 m/S 693 mmHg 80%
    09:00 +3°C° 0 mm 5 m/S 693 mmHg 76%
    10:00 +4°C° 0 mm 6 m/S 694 mmHg 71%
    11:00 +4°C° 0 mm 6 m/S 693 mmHg 68%
    12:00 +5°C° 0 mm 5 m/S 693 mmHg 65%
    13:00 +5°C° 0 mm 5 m/S 693 mmHg 62%
    14:00 +5°C° 0 mm 5 m/S 693 mmHg 61%
    15:00 +5°C° 0 mm 5 m/S 693 mmHg 60%
    16:00 +5°C° 0 mm 5 m/S 693 mmHg 59%
    17:00 +4°C° 0 mm 4 m/S 693 mmHg 64%
    18:00 +3°C° 0 mm 3 m/S 693 mmHg 69%
    19:00 +2°C° 0 mm 2 m/S 692 mmHg 75%
    20:00 +2°C° 0 mm 2 m/S 692 mmHg 78%
    21:00 +1°C° 0 mm 2 m/S 692 mmHg 81%
    22:00 +2°C° 0 mm 1 m/S 692 mmHg 84%
    23:00 +2°C° 0 mm 1 m/S 692 mmHg 83%

    übermorgen, 28 September, Freitag

    Zeit Temperatur Niederschläge Wind Luftdruck Luftfeuchtigkeit
    00:00 +2°C° 0 mm 1 m/S 692 mmHg 83%
    01:00 +2°C° 0 mm 1 m/S 691 mmHg 83%
    02:00 +2°C° 0.1 mm 1 m/S 691 mmHg 83%
    03:00 +2°C° 0.1 mm 1 m/S 691 mmHg 83%
    04:00 +2°C° 0.1 mm 1 m/S 691 mmHg 83%
    05:00 +2°C° 0 mm 1 m/S 691 mmHg 82%
    06:00 +3°C° 0 mm 1 m/S 691 mmHg 81%
    07:00 +3°C° 0 mm 1 m/S 691 mmHg 79%
    08:00 +3°C° 0.1 mm 2 m/S 692 mmHg 76%
    09:00 +3°C° 0.1 mm 3 m/S 692 mmHg 72%
    10:00 +4°C° 0.1 mm 4 m/S 692 mmHg 69%
    11:00 +5°C° 0.1 mm 4 m/S 693 mmHg 67%
    12:00 +5°C° 0.1 mm 5 m/S 693 mmHg 66%
    13:00 +5°C° 0.1 mm 5 m/S 693 mmHg 64%
    14:00 +5°C° 0.1 mm 5 m/S 694 mmHg 65%
    15:00 +5°C° 0.1 mm 5 m/S 694 mmHg 65%
    16:00 +5°C° 0.1 mm 5 m/S 695 mmHg 65%
    17:00 +3°C° 0 mm 4 m/S 695 mmHg 70%
    18:00 +2°C° 0 mm 3 m/S 695 mmHg 76%
    19:00 +1°C° 0 mm 2 m/S 696 mmHg 81%
    20:00 +1°C° 0 mm 2 m/S 696 mmHg 82%
    21:00 +2°C° 0 mm 1 m/S 696 mmHg 83%
    22:00 +2°C° 0 mm 1 m/S 696 mmHg 84%
    23:00 +2°C° 0 mm 1 m/S 697 mmHg 84%

    29 September, Samstag

    Zeit Temperatur Niederschläge Wind Luftdruck Luftfeuchtigkeit
    00:00 +2°C° 0 mm 1 m/S 697 mmHg 84%
    01:00 +2°C° 0 mm 1 m/S 697 mmHg 84%
    02:00 +2°C° 0.1 mm 1 m/S 697 mmHg 84%
    03:00 +2°C° 0.1 mm 1 m/S 697 mmHg 85%
    04:00 +2°C° 0.1 mm 1 m/S 697 mmHg 85%
    05:00 +2°C° 0.1 mm 1 m/S 698 mmHg 84%
    06:00 +2°C° 0.1 mm 1 m/S 698 mmHg 82%
    07:00 +3°C° 0.1 mm 1 m/S 699 mmHg 81%
    08:00 +4°C° 0 mm 1 m/S 699 mmHg 77%
    09:00 +5°C° 0 mm 1 m/S 699 mmHg 73%
    10:00 +6°C° 0 mm 1 m/S 699 mmHg 69%
    11:00 +7°C° 0 mm 1 m/S 699 mmHg 67%
    12:00 +8°C° 0 mm 1 m/S 699 mmHg 66%
    13:00 +9°C° 0 mm 1 m/S 699 mmHg 64%
    14:00 +9°C° 0 mm 1 m/S 699 mmHg 64%
    15:00 +9°C° 0 mm 1 m/S 699 mmHg 65%
    16:00 +10°C° 0 mm 1 m/S 699 mmHg 66%
    17:00 +8°C° 0 mm 1 m/S 699 mmHg 73%
    18:00 +6°C° 0 mm 1 m/S 699 mmHg 79%
    19:00 +5°C° 0 mm 1 m/S 699 mmHg 86%
    20:00 +4°C° 0 mm 1 m/S 699 mmHg 87%
    21:00 +4°C° 0 mm 1 m/S 700 mmHg 88%
    22:00 +3°C° 0 mm 1 m/S 700 mmHg 90%
    23:00 +3°C° 0 mm 1 m/S 700 mmHg 90%

    30 September, Sonntag

    Zeit Temperatur Niederschläge Wind Luftdruck Luftfeuchtigkeit
    00:00 +2°C° 0 mm 1 m/S 700 mmHg 90%
    01:00 +2°C° 0 mm 1 m/S 700 mmHg 91%
    02:00 +2°C° 0 mm 1 m/S 700 mmHg 91%
    03:00 +2°C° 0 mm 1 m/S 700 mmHg 91%
    04:00 -1°C° 0 mm 2 m/S 700 mmHg 91%
    05:00 +2°C° 0 mm 1 m/S 700 mmHg 88%
    06:00 +2°C° 0 mm 1 m/S 700 mmHg 86%
    07:00 +3°C° 0 mm 1 m/S 700 mmHg 83%
    08:00 +4°C° 0 mm 2 m/S 700 mmHg 76%
    09:00 +6°C° 0 mm 2 m/S 700 mmHg 68%
    10:00 +9°C° 0 mm 2 m/S 700 mmHg 60%
    11:00 +10°C° 0 mm 2 m/S 700 mmHg 57%
    12:00 +12°C° 0 mm 2 m/S 699 mmHg 53%
    13:00 +13°C° 0 mm 2 m/S 699 mmHg 50%
    14:00 +13°C° 0 mm 2 m/S 699 mmHg 51%
    15:00 +13°C° 0 mm 1 m/S 699 mmHg 52%
    16:00 +13°C° 0 mm 1 m/S 699 mmHg 53%
    17:00 +11°C° 0 mm 1 m/S 699 mmHg 60%
    18:00 +8°C° 0 mm 1 m/S 699 mmHg 66%
    19:00 +6°C° 0 mm 1 m/S 699 mmHg 73%
    20:00 +6°C° 0 mm 1 m/S 699 mmHg 74%
    21:00 +6°C° 0 mm 1 m/S 699 mmHg 75%
    22:00 +5°C° 0 mm 1 m/S 699 mmHg 77%
    23:00 +5°C° 0 mm 1 m/S 699 mmHg 78%

    1 Oktober, Montag

    Zeit Temperatur Niederschläge Wind Luftdruck Luftfeuchtigkeit
    00:00 +5°C° 0 mm 1 m/S 699 mmHg 79%
    01:00 +4°C° 0 mm 1 m/S 699 mmHg 80%
    02:00 +4°C° 0 mm 1 m/S 699 mmHg 80%
    03:00 +4°C° 0 mm 1 m/S 699 mmHg 81%
    04:00 +4°C° 0 mm 1 m/S 699 mmHg 82%
    05:00 +4°C° 0 mm 1 m/S 699 mmHg 80%
    06:00 +4°C° 0 mm 1 m/S 699 mmHg 79%
    07:00 +5°C° 0 mm 1 m/S 699 mmHg 77%
    08:00 +7°C° 0 mm 1 m/S 699 mmHg 70%
    09:00 +9°C° 0 mm 2 m/S 698 mmHg 63%
    10:00 +12°C° 0 mm 2 m/S 698 mmHg 55%
    11:00 +13°C° 0 mm 2 m/S 698 mmHg 53%
    12:00 +14°C° 0 mm 2 m/S 697 mmHg 51%
    13:00 +15°C° 0 mm 2 m/S 697 mmHg 49%
    14:00 +15°C° 0 mm 2 m/S 697 mmHg 50%
    15:00 +15°C° 0 mm 1 m/S 696 mmHg 52%
    16:00 +15°C° 0 mm 1 m/S 696 mmHg 53%
    17:00 +13°C° 0 mm 1 m/S 696 mmHg 59%
    18:00 +11°C° 0 mm 1 m/S 696 mmHg 65%
    19:00 +9°C° 0 mm 1 m/S 696 mmHg 71%
    20:00 +8°C° 0 mm 1 m/S 696 mmHg 74%
    21:00 +7°C° 0 mm 2 m/S 695 mmHg 76%
    22:00 +6°C° 0 mm 2 m/S 695 mmHg 78%
    23:00 +6°C° 0 mm 2 m/S 695 mmHg 79%
    Mehr zeigen